When you browse on this site, cookies collect data to enhance your experience and personalize the content and advertising you see.
Visit our Privacy Policy to learn more. By continuing to use the site, you agree to this use of cookies and data.
  • în România
  • Lista ţărilor
  • Pe 7 zile
  • Temperatura apei
  • Meteo pe hartă
  • Widget-uri
  • user-avatar
    Intrare

    Meteo pe oră la Ustka

    Astăzi, 6 Decembrie, Vineri

    Timp Temperatura Precipitaţii Vânt Presiune Umiditate
    00:00 -1°C° 0 mm 9 m/s 757 mmHg 79%
    01:00 -1°C° 0 mm 9 m/s 757 mmHg 78%
    02:00 -2°C° 0 mm 10 m/s 756 mmHg 76%
    03:00 -2°C° 0 mm 10 m/s 756 mmHg 74%
    04:00 -2°C° 0 mm 11 m/s 755 mmHg 72%
    05:00 -2°C° 0 mm 11 m/s 754 mmHg 70%
    06:00 -2°C° 0 mm 11 m/s 754 mmHg 69%
    07:00 -2°C° 0 mm 12 m/s 754 mmHg 67%
    08:00 -2°C° 0.1 mm 12 m/s 754 mmHg 71%
    09:00 -1°C° 0.1 mm 12 m/s 753 mmHg 76%
    10:00 -1°C° 0.1 mm 12 m/s 753 mmHg 80%
    11:00 -1°C° 0 mm 12 m/s 753 mmHg 81%
    12:00 -1°C° 0 mm 12 m/s 753 mmHg 83%
    13:00 +1°C° 0 mm 11 m/s 753 mmHg 85%
    14:00 +1°C° 0.2 mm 11 m/s 752 mmHg 86%
    15:00 +1°C° 0.2 mm 10 m/s 752 mmHg 88%
    16:00 +1°C° 0.2 mm 9 m/s 752 mmHg 90%
    17:00 +1°C° 0.2 mm 9 m/s 752 mmHg 90%
    18:00 +1°C° 0.2 mm 9 m/s 752 mmHg 90%
    19:00 +1°C° 0.2 mm 9 m/s 752 mmHg 90%
    20:00 +2°C° 0.1 mm 9 m/s 751 mmHg 90%
    21:00 +2°C° 0.1 mm 9 m/s 751 mmHg 90%
    22:00 +2°C° 0.1 mm 9 m/s 751 mmHg 90%
    23:00 +2°C° 0.2 mm 9 m/s 751 mmHg 91%

    Mâine, 7 Decembrie, Sâmbătă

    Timp Temperatura Precipitaţii Vânt Presiune Umiditate
    00:00 +2°C° 0.2 mm 9 m/s 750 mmHg 91%
    01:00 +2°C° 0.2 mm 9 m/s 750 mmHg 91%
    02:00 +2°C° 0.9 mm 9 m/s 749 mmHg 91%
    03:00 +2°C° 0.9 mm 9 m/s 748 mmHg 91%
    04:00 +2°C° 0.9 mm 9 m/s 748 mmHg 91%
    05:00 +2°C° 0.8 mm 9 m/s 748 mmHg 92%
    06:00 +3°C° 0.8 mm 9 m/s 748 mmHg 92%
    07:00 +3°C° 0.8 mm 9 m/s 747 mmHg 92%
    08:00 +3°C° 0.4 mm 9 m/s 747 mmHg 92%
    09:00 +5°C° 0.4 mm 9 m/s 747 mmHg 92%
    10:00 +5°C° 0.4 mm 9 m/s 748 mmHg 92%
    11:00 +5°C° 0.1 mm 9 m/s 748 mmHg 91%
    12:00 +6°C° 0.1 mm 9 m/s 748 mmHg 90%
    13:00 +6°C° 0.1 mm 9 m/s 748 mmHg 90%
    14:00 +6°C° 0.2 mm 9 m/s 748 mmHg 89%
    15:00 +6°C° 0.2 mm 9 m/s 748 mmHg 89%
    16:00 +6°C° 0.2 mm 9 m/s 748 mmHg 88%
    17:00 +6°C° 0.2 mm 10 m/s 749 mmHg 82%
    18:00 +5°C° 0.2 mm 10 m/s 749 mmHg 76%
    19:00 +5°C° 0.2 mm 10 m/s 750 mmHg 70%
    20:00 +5°C° 0 mm 10 m/s 750 mmHg 70%
    21:00 +3°C° 0 mm 9 m/s 751 mmHg 71%
    22:00 +3°C° 0 mm 9 m/s 751 mmHg 71%
    23:00 +3°C° 0 mm 9 m/s 751 mmHg 74%

    Poimâine, 8 Decembrie, Duminică

    Timp Temperatura Precipitaţii Vânt Presiune Umiditate
    00:00 +3°C° 0 mm 9 m/s 751 mmHg 76%
    01:00 +3°C° 0 mm 9 m/s 751 mmHg 79%
    02:00 +3°C° 0.3 mm 9 m/s 751 mmHg 82%
    03:00 +3°C° 0.3 mm 9 m/s 751 mmHg 86%
    04:00 +3°C° 0.3 mm 9 m/s 751 mmHg 89%
    05:00 +4°C° 0.3 mm 8 m/s 751 mmHg 90%
    06:00 +5°C° 0.3 mm 7 m/s 751 mmHg 91%
    07:00 +5°C° 0.3 mm 7 m/s 751 mmHg 92%
    08:00 +5°C° 0.4 mm 8 m/s 750 mmHg 89%
    09:00 +5°C° 0.4 mm 9 m/s 750 mmHg 86%
    10:00 +5°C° 0.4 mm 10 m/s 749 mmHg 83%
    11:00 +5°C° 0.1 mm 10 m/s 748 mmHg 83%
    12:00 +5°C° 0.1 mm 10 m/s 748 mmHg 82%
    13:00 +5°C° 0.1 mm 10 m/s 747 mmHg 81%
    14:00 +4°C° 0.4 mm 11 m/s 746 mmHg 83%
    15:00 +4°C° 0.4 mm 11 m/s 745 mmHg 84%
    16:00 +4°C° 0.4 mm 12 m/s 745 mmHg 85%
    17:00 +6°C° 0.1 mm 11 m/s 744 mmHg 85%
    18:00 +6°C° 0.1 mm 11 m/s 744 mmHg 85%
    19:00 +6°C° 0.1 mm 10 m/s 744 mmHg 86%
    20:00 +6°C° 0.1 mm 10 m/s 744 mmHg 85%
    21:00 +6°C° 0.1 mm 9 m/s 744 mmHg 84%
    22:00 +6°C° 0.1 mm 9 m/s 743 mmHg 83%
    23:00 +6°C° 0.1 mm 9 m/s 743 mmHg 82%

    9 Decembrie, Luni

    Timp Temperatura Precipitaţii Vânt Presiune Umiditate
    00:00 +5°C° 0.1 mm 9 m/s 743 mmHg 81%
    01:00 +3°C° 0.1 mm 9 m/s 743 mmHg 80%
    02:00 +3°C° 0.2 mm 10 m/s 742 mmHg 84%
    03:00 +2°C° 0.2 mm 10 m/s 742 mmHg 87%
    04:00 +2°C° 0.2 mm 10 m/s 742 mmHg 91%
    05:00 +2°C° 0.3 mm 10 m/s 742 mmHg 87%
    06:00 +3°C° 0.3 mm 10 m/s 742 mmHg 83%
    07:00 +3°C° 0.3 mm 10 m/s 742 mmHg 79%
    08:00 +3°C° 0.1 mm 10 m/s 742 mmHg 78%
    09:00 +3°C° 0.1 mm 10 m/s 742 mmHg 77%
    10:00 +3°C° 0.1 mm 10 m/s 742 mmHg 77%
    11:00 +3°C° 0 mm 10 m/s 742 mmHg 76%
    12:00 +3°C° 0 mm 10 m/s 742 mmHg 76%
    13:00 +3°C° 0 mm 9 m/s 742 mmHg 76%
    14:00 +3°C° 0.2 mm 9 m/s 741 mmHg 80%
    15:00 +2°C° 0.2 mm 8 m/s 741 mmHg 85%
    16:00 +3°C° 0.2 mm 7 m/s 741 mmHg 89%
    17:00 +3°C° 0.4 mm 7 m/s 741 mmHg 88%
    18:00 +3°C° 0.4 mm 6 m/s 741 mmHg 87%
    19:00 +4°C° 0.4 mm 6 m/s 741 mmHg 86%
    20:00 +3°C° 0.1 mm 5 m/s 741 mmHg 87%
    21:00 +3°C° 0.1 mm 5 m/s 741 mmHg 88%
    22:00 +4°C° 0.1 mm 4 m/s 742 mmHg 89%
    23:00 +4°C° 0 mm 4 m/s 742 mmHg 90%

    10 Decembrie, Marţi

    Timp Temperatura Precipitaţii Vânt Presiune Umiditate
    00:00 +3°C° 0 mm 4 m/s 742 mmHg 92%
    01:00 +3°C° 0 mm 4 m/s 743 mmHg 93%
    02:00 +4°C° 0.3 mm 4 m/s 743 mmHg 93%
    03:00 +3°C° 0.3 mm 5 m/s 744 mmHg 93%
    04:00 +3°C° 0.3 mm 6 m/s 745 mmHg 93%
    05:00 +3°C° 0.9 mm 7 m/s 746 mmHg 91%
    06:00 +2°C° 0.9 mm 9 m/s 747 mmHg 89%
    07:00 +2°C° 0.9 mm 11 m/s 748 mmHg 87%
    08:00 +1°C° 0.1 mm 10 m/s 750 mmHg 87%
    09:00 +1°C° 0.1 mm 10 m/s 752 mmHg 88%
    10:00 0°C° 0.1 mm 9 m/s 753 mmHg 88%
    11:00 0°C° 0 mm 8 m/s 754 mmHg 80%
    12:00 0°C° 0 mm 7 m/s 755 mmHg 71%
    13:00 0°C° 0 mm 7 m/s 756 mmHg 63%
    14:00 +1°C° 0 mm 5 m/s 757 mmHg 63%
    15:00 0°C° 0 mm 4 m/s 758 mmHg 63%
    16:00 0°C° 0 mm 3 m/s 758 mmHg 63%
    17:00 0°C° 0 mm 3 m/s 758 mmHg 64%
    18:00 0°C° 0 mm 3 m/s 758 mmHg 65%
    19:00 0°C° 0 mm 3 m/s 758 mmHg 66%
    20:00 -1°C° 0 mm 4 m/s 757 mmHg 67%
    21:00 -2°C° 0 mm 6 m/s 757 mmHg 69%
    22:00 -2°C° 0 mm 7 m/s 756 mmHg 70%
    23:00 -2°C° 0 mm 8 m/s 755 mmHg 69%

    11 Decembrie, Miercuri

    Timp Temperatura Precipitaţii Vânt Presiune Umiditate
    00:00 -1°C° 0 mm 9 m/s 753 mmHg 67%
    01:00 -2°C° 0 mm 11 m/s 752 mmHg 66%
    02:00 -2°C° 0.2 mm 12 m/s 750 mmHg 71%
    03:00 -2°C° 0.2 mm 13 m/s 748 mmHg 76%
    04:00 -2°C° 0.2 mm 14 m/s 746 mmHg 82%
    05:00 0°C° 1.4 mm 14 m/s 745 mmHg 83%
    06:00 +1°C° 1.4 mm 14 m/s 744 mmHg 84%
    07:00 +3°C° 1.4 mm 14 m/s 743 mmHg 86%
    08:00 +4°C° 0.3 mm 13 m/s 744 mmHg 83%
    09:00 +4°C° 0.3 mm 12 m/s 745 mmHg 81%
    10:00 +5°C° 0.3 mm 10 m/s 745 mmHg 78%
    11:00 +5°C° 0 mm 10 m/s 746 mmHg 77%
    12:00 +5°C° 0 mm 10 m/s 746 mmHg 76%
    13:00 +5°C° 0 mm 10 m/s 746 mmHg 75%
    14:00 +3°C° 0 mm 10 m/s 746 mmHg 76%
    15:00 +2°C° 0 mm 9 m/s 746 mmHg 77%
    16:00 +2°C° 0 mm 9 m/s 747 mmHg 78%
    17:00 +2°C° 0 mm 9 m/s 746 mmHg 78%
    18:00 +1°C° 0 mm 9 m/s 746 mmHg 78%
    19:00 +1°C° 0 mm 9 m/s 746 mmHg 77%
    20:00 +1°C° 0 mm 9 m/s 746 mmHg 77%
    21:00 +1°C° 0 mm 9 m/s 746 mmHg 77%
    22:00 +1°C° 0 mm 9 m/s 746 mmHg 77%
    23:00 +1°C° 0 mm 10 m/s 745 mmHg 77%
    Arată mai mult